SCP
0 0 0 0 0 0 0 -0 -0 -0 0 -0 0 0 0 0 0 0 0 0 0 -0 -0 -0 -0 0 0 -0 0 0 -0 0 0 0 0 0 0 0 0 0 0 0 0
0 0 0 0 0 0 0 -0 -0 -0 -0 -0 0 0 0 0 0 0 0 0 0 0 0 0 0 0 0 0 0 0 0 0 0 0 0 0 0 0 0 0 0 0 0
0 0 0 0 0 0 0 -0 0 -0 -0 -0 -0 -0 -0 0 0 0 0 0 0 0 0 -0 0 0 0 0 -0 0 0 0 0 0 0 0 0 0 0 0 0 0 0
0 0 0 0 0 0 0 0 -0 0 -0 -0 0 0 0 0 0 0 0 0 0 0 0 0 -0 0 0 0 0 0 -0 0 0 0 0 0 0 0 0 0 0 0 0
0 0 0 0 0 0 0 0 -0 -0 -0 0 -0 0 -0 0 0 0 0 0 0 0 0 0 0 0 0 0 0 0 0 0 0 0 0 0 0 0 0 0 0 0 0
-0 0 0 0 0 0 0 0 0 -0 -0 -0 -0 0 -0 0 0 0 0 0 0 0 0 0 0 -0 0 -0 -0 -0 -0 0 -0 0 0 0 0 0 0 0 0 0 0
-0 0 0 0 0 0 0 0 0 0 0 -0 -0 0 0 0 0 0 0 0 0 0 0 0 0 0 0 0 -0 -0 -0 -0 0 0 0 0 0 0 0 0 0 0 0
-0 0 0 0 0 0 0 0 0 0 0 0 0 -0 0 -0 -0 0 0 0 0 0 0 0 0 0 0 0 -0 -0 -0 0 0 0 0 -0 -0 0 0 0 0 -0 -0
-0 -0 -0 0 0 0 0 0 0 0 0 0 0 -0 -0 0 0 0 0 0 -0 0 0 0 0 0 0 0 0 0 0 0 0 0 0 0 -0 -0 -0 -0 -0 -0 0
-0 -0 -0 -0 0 0 0 0 0 0 0 0 0 -0 -0 -0 -0 -0 0 -0 -0 0 0 0 0 0 0 0 0 -0 0 0 0 0 0 0 0 -0 -0 -0 -0 -0 0
-0 -0 -0 -0 -0 -0 0 0 0 0 0 0 0 0 0 -0 -0 -0 -0 -0 -0 0 0 0 0 0 0 0 0 0 0 0 -0 -0 -0 0 -0 -0 0 0 0 0 0
-0 -0 -0 -0 -0 -0 -0 0 0 0 0 0 0 0 0 0 0 0 0 -0 0 0 0 0 0 0 -0 -0 0 -0 -0 -0 -0 -0 -0 0 -0 0 0 0 0 0 0
-0 -0 -0 -0 -0 -0 -0 0 0 0 0 0 0 0 0 0 0 -0 -0 -0 -0 -0 -0 -0 -0 -0 0 0 0 0 0 -0 0 0 -0 -0 -0 -0 -0 0 0 0 0
-0 -0 -0 -0 -0 -0 -0 0 0 0 0 0 0 0 0 0 0 -0 -0 -0 -0 -0 -0 -0 -0 -0 0 0 0 -0 0 -0 0 -0 -0 -0 0 0 0 0 0 0 0
-0 -0 -0 -0 -0 -0 -0 0 -0 0 0 0 0 0 0 -0 -0 -0 0 0 -0 -0 -0 -0 -0 -0 -0 -0 0 0 0 0 -0 0 0 0 0 0 0 0 0 0 0
-0 -0 -0 -0 -0 -0 0 0 -0 -0 0 0 0 0 -0 -0 0 0 0 0 0 -0 0 0 0 0 0 0 0 0 0 -0 -0 0 0 0 0 0 0 0 0 0 0
-0 -0 -0 -0 -0 -0 -0 0 0 -0 -0 0 0 0 0 0 -0 -0 -0 -0 -0 0 0 0 0 0 0 0 0 0 -0 -0 0 0 0 0 0 0 0 0 0 0 0
-0 0 0 0 0 0 0 -0 -0 0 0 0 -0 0 0 0 -0 -0 -0 -0 -0 0 0 0 0 0 0 0 -0 0 -0 0 0 0 0 0 0 0 0 0 0 0 0
0 0 0 0 0 0 0 0 -0 -0 -0 -0 0 -0 -0 0 0 -0 -0 0 -0 -0 0 -0 -0 -0 -0 -0 -0 -0 0 0 0 0 0 0 0 0 0 0 0 0 0
0 0 0 0 0 0 0 0 0 -0 0 0 0 0 0 0 0 0 0 0 0 0 0 0 0 -0 -0 0 0 0 0 0 0 0 0 0 0 0 0 0 0 0 0
0 0 0 0 0 0 0 0 0 0 0 0 0 0 0 0 0 0 0 0 0 0 0 0 0 0 0 0 0 0 0 0 0 0 0 0 0 0 0 0 0 0 0
0 0 0 0 0 0 0 0 0 0 0 0 0 0 0 0 0 0 0 0 0 0 0 0 0 0 0 0 0 0 0 0 0 0 0 0 0 0 0 0 0 0 0
0 0 0 0 0 0 0 0 0 0 0 0 0 0 0 0 0 0 0 0 0 0 0 0 0 0 0 0 0 0 0 0 0 0 0 0 0 0 0 0 0 0 0
0 0 0 0 0 0 0 0 0 0 0 0 0 0 0 0 0 0 0 0 0 0 0 0 0 0 0 0 0 0 0 0 0 0 0 0 0 0 0 0 0 0 0
0 0 0 0 0 0 0 0 0 0 0 0 0 0 0 0 0 0 0 0 0 0 0 0 0 0 0 0 0 0 0 0 0 0 0 0 0 0 0 0 0 0 0
0 0 0 0 0 0 0 0 0 0 0 0 0 0 0 0 0 0 0 0 0 0 0 0 0 0 0 0 0 0 0 0 0 0 0 0 0 0 0 0 0 0 0
Wind_Speed_500mb
14 9 7 3 7 5 8 10 7 10 10 16 21 22 20 21 23 24 25 26 21 20 19 16 22 21 20 28 19 28 24 18 21 28 51 88 86 83 77 70 60 50 41
16 12 8 6 9 10 12 10 10 12 14 17 22 23 23 23 22 22 22 22 23 22 22 21 18 19 26 22 17 20 15 20 21 44 76 78 80 81 76 64 52 39 31
17 15 11 10 14 14 13 12 13 12 14 17 19 23 24 22 21 19 18 18 24 24 22 24 25 20 21 17 18 19 18 19 29 49 58 69 76 74 68 55 46 37 31
19 19 16 13 16 17 19 14 13 15 15 17 20 24 24 23 21 19 24 28 26 23 23 21 22 18 18 21 21 22 22 25 34 53 56 72 74 69 65 59 46 28 45
22 22 20 19 15 18 20 20 13 15 17 18 20 24 25 22 22 20 25 23 23 24 25 26 25 23 24 21 22 23 29 37 43 54 64 65 72 68 61 49 39 39 41
26 24 22 21 19 16 15 13 15 13 18 18 20 23 27 26 22 22 27 23 15 15 24 32 32 29 27 23 22 20 26 31 48 59 63 71 75 65 54 37 34 40 38
30 27 24 23 22 18 14 13 12 12 18 15 16 21 26 27 27 29 25 21 17 21 28 33 31 30 28 19 28 32 35 40 34 55 57 60 67 59 45 39 32 35 30
37 30 26 27 26 22 19 16 14 17 19 11 13 21 25 28 29 28 19 18 24 26 25 32 36 41 32 45 48 42 48 48 48 43 44 58 53 42 33 34 40 31 32
42 35 30 33 31 27 21 18 17 16 15 13 12 16 35 31 32 31 27 29 31 31 40 43 38 41 55 47 46 39 47 48 46 45 44 43 42 40 40 43 38 36 31
45 41 34 35 33 29 25 20 20 20 19 19 23 31 37 32 36 32 30 31 46 44 46 46 41 41 43 40 35 37 45 46 48 49 45 46 44 40 37 31 28 25 24
46 44 39 33 36 31 30 24 20 23 20 22 25 31 31 32 35 38 31 33 43 44 37 42 44 36 29 35 38 37 39 47 47 45 42 41 39 35 31 28 28 24 21
49 47 45 37 38 37 35 31 24 21 22 22 23 28 29 30 35 43 45 33 30 33 40 38 33 34 36 38 36 38 36 35 37 38 38 34 33 33 32 29 25 20 16
54 50 48 43 38 41 41 37 32 25 23 24 23 24 26 27 29 33 41 40 35 35 42 35 33 34 36 36 36 34 31 28 28 29 29 30 32 28 24 21 21 18 11
58 54 52 50 45 45 43 39 37 34 29 28 27 24 26 29 31 34 39 44 42 39 38 32 29 31 33 32 29 28 25 25 23 24 27 23 20 20 21 23 19 15 9
61 59 56 54 50 46 48 45 44 39 34 31 32 31 32 31 29 31 37 43 42 39 37 35 34 32 31 31 29 28 28 27 27 28 23 17 18 21 24 25 22 15 13
68 64 62 60 57 51 50 50 45 42 35 29 25 27 30 29 31 31 33 36 35 33 34 35 36 35 34 32 30 31 32 31 32 28 23 22 24 25 26 27 25 22 18
75 69 67 64 61 57 51 49 50 47 44 39 34 33 31 29 36 37 37 37 36 36 38 40 41 42 40 38 37 37 38 38 33 30 31 30 28 29 28 32 32 29 25
77 70 68 68 66 64 59 51 43 44 51 52 49 44 43 41 37 37 41 43 46 50 48 38 43 45 45 44 43 43 43 43 42 42 38 37 36 34 32 36 38 37 31
80 78 74 67 65 67 64 59 51 42 39 37 48 52 50 51 50 48 47 50 55 59 58 56 53 53 52 50 49 49 50 51 51 49 46 42 39 39 40 42 44 41 37
79 78 77 72 68 66 69 66 59 54 49 43 45 48 56 58 62 64 63 62 59 58 60 62 61 58 55 54 54 53 55 56 54 53 52 49 50 49 46 49 50 48 43
81 83 82 78 74 69 69 72 69 63 59 55 55 52 49 49 58 65 69 70 70 67 65 64 63 64 62 60 57 58 58 58 59 59 60 60 60 53 54 54 54 50 47
81 83 85 87 81 77 72 70 71 68 65 62 58 58 56 55 55 53 58 63 68 69 68 67 65 65 64 63 63 63 63 64 66 59 68 68 64 62 70 62 53 54 55
78 82 85 87 86 83 77 74 72 71 69 67 62 60 60 61 65 63 60 55 55 59 64 68 68 69 66 61 61 63 66 67 65 67 71 71 73 77 71 62 61 67 66
76 78 81 84 87 86 85 81 78 75 73 72 69 66 65 60 62 64 61 58 55 51 55 59 63 66 67 66 63 61 59 58 61 64 69 75 81 80 73 68 73 74 64
69 73 75 75 77 80 81 81 80 77 75 76 74 74 71 67 62 60 60 61 60 57 53 49 51 51 54 58 62 65 67 64 64 63 67 71 72 75 70 75 73 70 72
68 65 68 69 70 71 74 73 70 70 72 71 73 71 69 68 62 57 56 56 59 58 55 54 54 52 53 55 56 58 59 60 64 65 65 64 64 62 63 71 73 77 68
Wind_Direction_500mb
168 146 130 66 27 83 101 89 114 110 126 155 158 152 154 159 162 161 160 166 163 157 145 145 137 144 159 149 150 174 190 192 187 162 132 164 156 151 152 154 149 148 148
176 162 142 83 43 122 122 92 95 119 132 140 164 166 161 159 155 160 165 167 169 165 155 157 165 147 143 157 128 145 153 164 177 155 131 153 147 153 152 150 146 147 155
183 174 157 110 76 106 119 106 107 115 128 137 150 163 165 165 160 156 162 166 161 161 161 173 160 158 172 164 151 152 159 173 180 166 156 157 154 155 149 145 152 155 155
187 180 167 144 99 98 105 105 108 124 122 130 143 154 159 158 157 153 151 151 147 155 169 169 163 165 165 164 157 155 164 159 170 170 165 158 158 151 151 151 148 148 134
188 182 176 164 133 111 107 85 100 119 127 127 146 146 146 149 145 145 152 158 149 147 148 145 149 154 155 159 156 160 160 158 160 166 159 152 153 155 153 153 139 142 143
188 184 182 170 157 128 124 104 85 114 127 132 134 145 141 141 132 134 139 139 143 161 155 147 148 149 150 156 169 167 164 180 158 160 162 165 160 163 161 155 155 146 143
189 187 185 177 164 150 136 121 109 119 138 125 149 150 151 139 139 137 124 117 115 122 134 134 133 141 141 143 144 135 138 160 156 161 167 166 172 166 164 161 161 162 165
194 192 187 181 169 159 145 127 118 117 139 99 141 160 170 148 144 153 144 119 123 118 128 133 144 150 133 129 128 125 122 130 138 146 146 164 160 164 169 170 169 169 156
198 196 191 183 175 168 156 140 128 123 132 126 100 161 168 148 154 145 140 131 130 138 143 136 124 128 144 133 129 126 129 132 133 133 140 151 158 161 162 166 168 172 169
198 199 196 188 183 176 170 155 141 132 120 123 96 120 149 147 151 151 145 136 137 130 129 129 126 123 132 128 131 137 140 142 142 142 143 149 152 152 154 165 173 176 188
196 200 200 195 189 183 176 168 155 148 135 121 124 122 145 158 153 159 154 145 146 142 132 143 134 135 140 136 133 134 140 140 140 143 145 152 158 166 171 174 177 184 191
195 200 202 200 193 188 183 175 169 162 157 140 131 137 138 143 166 167 171 162 160 152 151 143 138 141 141 141 139 141 147 155 155 154 153 157 163 167 171 173 176 181 188
197 199 204 201 200 194 191 187 182 176 176 168 154 146 149 154 149 160 185 187 181 175 166 159 154 152 151 153 155 156 154 152 154 162 165 166 167 168 172 175 176 184 204
196 199 203 204 201 198 198 199 197 192 186 185 176 169 162 155 158 160 160 161 168 177 175 177 176 170 170 173 178 180 179 180 178 179 177 176 178 182 183 185 190 195 203
196 198 202 204 204 203 203 204 207 207 202 192 191 187 182 176 168 166 168 167 169 175 182 188 189 186 185 188 192 196 197 188 186 190 191 199 206 205 206 205 204 206 213
197 198 202 203 203 206 206 207 209 208 204 200 199 199 193 189 187 181 177 182 189 194 197 202 204 204 203 203 206 207 205 201 200 201 208 222 228 225 224 219 217 217 221
204 200 200 204 205 205 206 206 207 204 204 204 199 196 199 195 196 195 197 198 199 204 208 211 213 214 214 216 218 217 216 215 215 221 227 230 232 235 239 227 225 225 228
207 208 205 202 205 207 208 207 203 204 205 205 202 201 200 197 201 206 208 210 212 214 215 218 222 224 226 228 229 228 227 228 228 232 234 237 239 241 239 234 232 233 234
206 208 209 208 207 208 209 210 210 208 208 210 212 207 205 205 205 209 214 221 224 224 224 226 227 229 230 233 234 235 236 238 238 240 243 246 247 247 246 242 241 235 228
208 211 209 210 210 210 212 213 213 215 217 214 220 217 217 212 214 216 219 221 225 228 231 233 234 235 237 236 237 238 241 242 244 246 248 251 251 247 246 247 245 234 220
208 210 211 213 212 212 212 214 216 217 220 222 226 226 229 225 227 228 230 231 233 235 235 236 236 238 237 239 240 242 243 245 244 246 249 251 253 251 245 242 237 222 211
210 212 211 214 215 214 215 217 219 220 222 225 228 232 233 232 234 235 238 242 242 244 245 244 242 242 243 243 244 246 248 250 249 247 255 252 252 245 245 243 235 222 216
214 214 214 214 218 219 219 220 220 222 225 226 226 230 234 236 236 240 245 249 249 247 246 247 246 245 245 245 246 247 248 250 254 254 256 253 250 249 246 238 232 223 219
216 216 216 217 219 220 221 221 224 226 227 229 229 231 234 234 238 242 246 249 252 252 249 248 248 248 249 250 251 252 253 254 253 254 254 253 251 251 245 232 226 221 218
216 218 217 219 222 224 225 225 227 230 231 233 235 235 236 238 239 240 243 247 250 250 249 248 247 247 248 250 252 253 256 257 259 261 259 257 254 251 245 230 225 221 210
217 218 217 219 222 226 228 228 228 233 235 237 237 238 240 242 239 237 238 241 244 247 251 252 251 250 249 248 250 252 254 255 256 258 260 258 254 246 236 228 221 213 193
Wind_Speed_850mb
14 9 7 3 7 5 8 10 7 10 10 16 21 22 20 21 23 24 25 26 21 20 19 16 22 21 20 28 19 28 24 18 21 28 51 88 86 83 77 70 60 50 41
16 12 8 6 9 10 12 10 10 12 14 17 22 23 23 23 22 22 22 22 23 22 22 21 18 19 26 22 17 20 15 20 21 44 76 78 80 81 76 64 52 39 31
17 15 11 10 14 14 13 12 13 12 14 17 19 23 24 22 21 19 18 18 24 24 22 24 25 20 21 17 18 19 18 19 29 49 58 69 76 74 68 55 46 37 31
19 19 16 13 16 17 19 14 13 15 15 17 20 24 24 23 21 19 24 28 26 23 23 21 22 18 18 21 21 22 22 25 34 53 56 72 74 69 65 59 46 28 45
22 22 20 19 15 18 20 20 13 15 17 18 20 24 25 22 22 20 25 23 23 24 25 26 25 23 24 21 22 23 29 37 43 54 64 65 72 68 61 49 39 39 41
26 24 22 21 19 16 15 13 15 13 18 18 20 23 27 26 22 22 27 23 15 15 24 32 32 29 27 23 22 20 26 31 48 59 63 71 75 65 54 37 34 40 38
30 27 24 23 22 18 14 13 12 12 18 15 16 21 26 27 27 29 25 21 17 21 28 33 31 30 28 19 28 32 35 40 34 55 57 60 67 59 45 39 32 35 30
37 30 26 27 26 22 19 16 14 17 19 11 13 21 25 28 29 28 19 18 24 26 25 32 36 41 32 45 48 42 48 48 48 43 44 58 53 42 33 34 40 31 32
42 35 30 33 31 27 21 18 17 16 15 13 12 16 35 31 32 31 27 29 31 31 40 43 38 41 55 47 46 39 47 48 46 45 44 43 42 40 40 43 38 36 31
45 41 34 35 33 29 25 20 20 20 19 19 23 31 37 32 36 32 30 31 46 44 46 46 41 41 43 40 35 37 45 46 48 49 45 46 44 40 37 31 28 25 24
46 44 39 33 36 31 30 24 20 23 20 22 25 31 31 32 35 38 31 33 43 44 37 42 44 36 29 35 38 37 39 47 47 45 42 41 39 35 31 28 28 24 21
49 47 45 37 38 37 35 31 24 21 22 22 23 28 29 30 35 43 45 33 30 33 40 38 33 34 36 38 36 38 36 35 37 38 38 34 33 33 32 29 25 20 16
54 50 48 43 38 41 41 37 32 25 23 24 23 24 26 27 29 33 41 40 35 35 42 35 33 34 36 36 36 34 31 28 28 29 29 30 32 28 24 21 21 18 11
58 54 52 50 45 45 43 39 37 34 29 28 27 24 26 29 31 34 39 44 42 39 38 32 29 31 33 32 29 28 25 25 23 24 27 23 20 20 21 23 19 15 9
61 59 56 54 50 46 48 45 44 39 34 31 32 31 32 31 29 31 37 43 42 39 37 35 34 32 31 31 29 28 28 27 27 28 23 17 18 21 24 25 22 15 13
68 64 62 60 57 51 50 50 45 42 35 29 25 27 30 29 31 31 33 36 35 33 34 35 36 35 34 32 30 31 32 31 32 28 23 22 24 25 26 27 25 22 18
75 69 67 64 61 57 51 49 50 47 44 39 34 33 31 29 36 37 37 37 36 36 38 40 41 42 40 38 37 37 38 38 33 30 31 30 28 29 28 32 32 29 25
77 70 68 68 66 64 59 51 43 44 51 52 49 44 43 41 37 37 41 43 46 50 48 38 43 45 45 44 43 43 43 43 42 42 38 37 36 34 32 36 38 37 31
80 78 74 67 65 67 64 59 51 42 39 37 48 52 50 51 50 48 47 50 55 59 58 56 53 53 52 50 49 49 50 51 51 49 46 42 39 39 40 42 44 41 37
79 78 77 72 68 66 69 66 59 54 49 43 45 48 56 58 62 64 63 62 59 58 60 62 61 58 55 54 54 53 55 56 54 53 52 49 50 49 46 49 50 48 43
81 83 82 78 74 69 69 72 69 63 59 55 55 52 49 49 58 65 69 70 70 67 65 64 63 64 62 60 57 58 58 58 59 59 60 60 60 53 54 54 54 50 47
81 83 85 87 81 77 72 70 71 68 65 62 58 58 56 55 55 53 58 63 68 69 68 67 65 65 64 63 63 63 63 64 66 59 68 68 64 62 70 62 53 54 55
78 82 85 87 86 83 77 74 72 71 69 67 62 60 60 61 65 63 60 55 55 59 64 68 68 69 66 61 61 63 66 67 65 67 71 71 73 77 71 62 61 67 66
76 78 81 84 87 86 85 81 78 75 73 72 69 66 65 60 62 64 61 58 55 51 55 59 63 66 67 66 63 61 59 58 61 64 69 75 81 80 73 68 73 74 64
69 73 75 75 77 80 81 81 80 77 75 76 74 74 71 67 62 60 60 61 60 57 53 49 51 51 54 58 62 65 67 64 64 63 67 71 72 75 70 75 73 70 72
68 65 68 69 70 71 74 73 70 70 72 71 73 71 69 68 62 57 56 56 59 58 55 54 54 52 53 55 56 58 59 60 64 65 65 64 64 62 63 71 73 77 68
Wind_Direction_850mb
168 146 130 66 27 83 101 89 114 110 126 155 158 152 154 159 162 161 160 166 163 157 145 145 137 144 159 149 150 174 190 192 187 162 132 164 156 151 152 154 149 148 148
176 162 142 83 43 122 122 92 95 119 132 140 164 166 161 159 155 160 165 167 169 165 155 157 165 147 143 157 128 145 153 164 177 155 131 153 147 153 152 150 146 147 155
183 174 157 110 76 106 119 106 107 115 128 137 150 163 165 165 160 156 162 166 161 161 161 173 160 158 172 164 151 152 159 173 180 166 156 157 154 155 149 145 152 155 155
187 180 167 144 99 98 105 105 108 124 122 130 143 154 159 158 157 153 151 151 147 155 169 169 163 165 165 164 157 155 164 159 170 170 165 158 158 151 151 151 148 148 134
188 182 176 164 133 111 107 85 100 119 127 127 146 146 146 149 145 145 152 158 149 147 148 145 149 154 155 159 156 160 160 158 160 166 159 152 153 155 153 153 139 142 143
188 184 182 170 157 128 124 104 85 114 127 132 134 145 141 141 132 134 139 139 143 161 155 147 148 149 150 156 169 167 164 180 158 160 162 165 160 163 161 155 155 146 143
189 187 185 177 164 150 136 121 109 119 138 125 149 150 151 139 139 137 124 117 115 122 134 134 133 141 141 143 144 135 138 160 156 161 167 166 172 166 164 161 161 162 165
194 192 187 181 169 159 145 127 118 117 139 99 141 160 170 148 144 153 144 119 123 118 128 133 144 150 133 129 128 125 122 130 138 146 146 164 160 164 169 170 169 169 156
198 196 191 183 175 168 156 140 128 123 132 126 100 161 168 148 154 145 140 131 130 138 143 136 124 128 144 133 129 126 129 132 133 133 140 151 158 161 162 166 168 172 169
198 199 196 188 183 176 170 155 141 132 120 123 96 120 149 147 151 151 145 136 137 130 129 129 126 123 132 128 131 137 140 142 142 142 143 149 152 152 154 165 173 176 188
196 200 200 195 189 183 176 168 155 148 135 121 124 122 145 158 153 159 154 145 146 142 132 143 134 135 140 136 133 134 140 140 140 143 145 152 158 166 171 174 177 184 191
195 200 202 200 193 188 183 175 169 162 157 140 131 137 138 143 166 167 171 162 160 152 151 143 138 141 141 141 139 141 147 155 155 154 153 157 163 167 171 173 176 181 188
197 199 204 201 200 194 191 187 182 176 176 168 154 146 149 154 149 160 185 187 181 175 166 159 154 152 151 153 155 156 154 152 154 162 165 166 167 168 172 175 176 184 204
196 199 203 204 201 198 198 199 197 192 186 185 176 169 162 155 158 160 160 161 168 177 175 177 176 170 170 173 178 180 179 180 178 179 177 176 178 182 183 185 190 195 203
196 198 202 204 204 203 203 204 207 207 202 192 191 187 182 176 168 166 168 167 169 175 182 188 189 186 185 188 192 196 197 188 186 190 191 199 206 205 206 205 204 206 213
197 198 202 203 203 206 206 207 209 208 204 200 199 199 193 189 187 181 177 182 189 194 197 202 204 204 203 203 206 207 205 201 200 201 208 222 228 225 224 219 217 217 221
204 200 200 204 205 205 206 206 207 204 204 204 199 196 199 195 196 195 197 198 199 204 208 211 213 214 214 216 218 217 216 215 215 221 227 230 232 235 239 227 225 225 228
207 208 205 202 205 207 208 207 203 204 205 205 202 201 200 197 201 206 208 210 212 214 215 218 222 224 226 228 229 228 227 228 228 232 234 237 239 241 239 234 232 233 234
206 208 209 208 207 208 209 210 210 208 208 210 212 207 205 205 205 209 214 221 224 224 224 226 227 229 230 233 234 235 236 238 238 240 243 246 247 247 246 242 241 235 228
208 211 209 210 210 210 212 213 213 215 217 214 220 217 217 212 214 216 219 221 225 228 231 233 234 235 237 236 237 238 241 242 244 246 248 251 251 247 246 247 245 234 220
208 210 211 213 212 212 212 214 216 217 220 222 226 226 229 225 227 228 230 231 233 235 235 236 236 238 237 239 240 242 243 245 244 246 249 251 253 251 245 242 237 222 211
210 212 211 214 215 214 215 217 219 220 222 225 228 232 233 232 234 235 238 242 242 244 245 244 242 242 243 243 244 246 248 250 249 247 255 252 252 245 245 243 235 222 216
214 214 214 214 218 219 219 220 220 222 225 226 226 230 234 236 236 240 245 249 249 247 246 247 246 245 245 245 246 247 248 250 254 254 256 253 250 249 246 238 232 223 219
216 216 216 217 219 220 221 221 224 226 227 229 229 231 234 234 238 242 246 249 252 252 249 248 248 248 249 250 251 252 253 254 253 254 254 253 251 251 245 232 226 221 218
216 218 217 219 222 224 225 225 227 230 231 233 235 235 236 238 239 240 243 247 250 250 249 248 247 247 248 250 252 253 256 257 259 261 259 257 254 251 245 230 225 221 210
217 218 217 219 222 226 228 228 228 233 235 237 237 238 240 242 239 237 238 241 244 247 251 252 251 250 249 248 250 252 254 255 256 258 260 258 254 246 236 228 221 213 193